Location: Newark
(45.6000°N, 12.8833°E)
Time: 18:39:09
(UTC+00:00)

Vanguard 1 Rocket - All Passes

Search period start: 12 November 2019 00:00
Search period end: 22 November 2019 00:00
Orbit: 651 x 4225 km, 34.3° (Epoch: 11 November)

Date Brightness Start Highest point End Pass type
(mag) Time Alt. Az. Time Alt. Az. Time Alt. Az.
12 Nov - 05:17:52 10° SW 05:22:37 31° SSE 05:30:01 10° ESE visible
12 Nov - 07:40:57 10° WSW 07:47:35 36° S 07:59:12 10° SE daylight
12 Nov - 10:06:06 10° WSW 10:14:06 23° SSW 10:26:19 10° SSE daylight
13 Nov - 04:08:21 10° SSW 04:12:04 21° SSE 04:16:59 10° ESE visible
13 Nov - 06:30:45 10° WSW 06:36:18 35° S 06:45:40 10° ESE daylight
13 Nov - 08:54:49 10° WSW 09:02:03 27° SSW 09:13:50 10° SSE daylight
13 Nov - 11:24:36 10° SW 11:29:11 12° SSW 11:34:35 10° SSW daylight
14 Nov - 02:59:42 10° S 03:01:39 12° SSE 03:03:47 10° SE visible
14 Nov - 05:20:46 10° SW 05:25:23 31° S 05:32:29 10° ESE visible
14 Nov - 07:44:10 10° WSW 07:50:23 30° S 08:00:49 10° SE daylight
14 Nov - 10:10:22 10° WSW 10:16:51 17° SSW 10:25:48 10° S daylight
15 Nov - 04:10:59 10° SW 04:14:46 23° SSE 04:19:47 10° ESE visible
15 Nov - 06:33:51 10° WSW 06:39:07 31° S 06:47:43 10° SE daylight
15 Nov - 08:58:30 10° WSW 09:04:51 21° SSW 09:14:25 10° SSE daylight
16 Nov - 03:01:38 10° SSW 03:04:17 15° SSE 03:07:17 10° ESE visible
16 Nov - 05:23:45 10° WSW 05:28:12 29° S 05:34:54 10° ESE visible
16 Nov - 07:47:33 10° WSW 07:53:14 25° SSW 08:02:09 10° SE daylight
16 Nov - 10:16:27 10° SW 10:19:37 11° SSW 10:23:18 10° SSW daylight
17 Nov - 04:13:46 10° SW 04:17:33 24° S 04:22:29 10° ESE visible
17 Nov - 06:37:03 10° WSW 06:41:59 27° S 06:49:37 10° SE daylight
17 Nov - 09:02:47 10° SW 09:07:42 15° SSW 09:14:17 10° S daylight
18 Nov - 03:03:59 10° SSW 03:07:01 18° SSE 03:10:26 10° ESE visible
18 Nov - 05:26:48 10° WSW 05:31:04 27° S 05:37:12 10° SE visible
18 Nov - 07:51:14 10° WSW 07:56:06 19° SSW 08:03:05 10° SSE daylight
19 Nov - 01:54:43 10° S 01:56:30 12° SSE 01:58:15 10° SE visible
19 Nov - 04:16:39 10° SW 04:20:22 24° S 04:25:07 10° ESE visible
19 Nov - 06:40:26 10° WSW 06:44:52 22° S 06:51:16 10° SE daylight
20 Nov - 03:06:33 10° SW 03:09:48 20° S 03:13:24 10° ESE visible
20 Nov - 05:29:58 10° WSW 05:33:56 23° S 05:39:21 10° SE visible
20 Nov - 07:55:37 10° SW 07:59:00 13° SSW 08:03:14 10° S daylight
21 Nov - 01:56:33 10° SSW 01:59:15 15° SSE 02:01:54 10° SE visible
21 Nov - 04:19:38 10° SW 04:23:12 23° S 04:27:39 10° SE visible
21 Nov - 06:44:08 10° SW 06:47:46 16° SSW 06:52:31 10° SSE daylight
